A/2019 O2

Japanese version
Home page
Updated on August 10, 2019

---------------------------------------------------------------------

* Profile

Discovery Date July 24, 2019
Magnitude 20.5 mag
Discoverer Pan-STARRS 1 telescope (Haleakala)

* Orbital Elements

T 2023 Apr. 12.82091 TT                                 Bell                    
q   9.7874544            (2000.0)            P               Q                  
z  +0.0217745      Peri.  128.83668     -0.38410334     -0.54517225             
                   Node    48.27724     -0.76596839     -0.26246536             
e   0.7868833      Incl.   93.27866     +0.51551630     -0.79617784             
H    9.5                                                                        
From 36 observations 2019 July 24-Aug. 7.                                       

* Magnitudes Graph

        H = 9.5  G = 0.15

---------------------------------------------------------------------

The orbital elements are published on M.P.E.C. 2019-P54.
The magnitudes graphs are made with Comet for Windows.

---------------------------------------------------------------------

Copyright(C) Seiichi Yoshida (comet@aerith.net). All rights reserved.